OPS 4682 DEB, 51497

Orbit data source: Space-Track

OPS 4682 DEB, 51497 is space debris in LEO originally from a launch on Sat, 03 Apr 1965 UTC launched from the Air Force Western Test Range (AFWTR). Debris objects in space refer to the collection of defunct objects orbiting the Earth. Examples of debris include non-operational satellites, rocket bodies, and fragments generated from explosions, collisions, or faulty payload assembly.

Loading next visibility...
Identifier
51497, 1965-027GH
Orbit
LEO
Country
Flag of USUS
Related business
Manufacturer
Unknown
Mission
Spacecraft
Bus & Motor
Unknown
Mass
Unknown
Launch date (UTC)
1965-04-03 (61 years ago)
Launch vehicle
Unknown
Launch site
Air Force Western Test Range (AFWTR)
Object type
Payload
Rocket body
Debris
Shape & HBR
Unknown shape, 1.1 m
Radar Cross Section
Medium (>0.1 m² and <1 m²)

Expand to show TLE details & history
Last TLE update: 13 hours ago

TLE from 13 hours ago
0 OPS 4682 DEB
1 51497U 65027GH  26263.03095245 -.00000086  00000-0 -33661-3 0  9991
2 51497  90.2634  11.2009 0035539  28.8204 331.4869 12.94415922429743
Epoch: 2026-09-20T00:44Z
TLE epoch observation values (Epoch: 2026-09-20T00:44:34.291Z)
Latitude
0.00004°
Longitude
1.12704°
Altitude
1,263.009 km
Speed
7.235 km/s
True Right ascension
00h 44m 48s
True Declination
0° 00' 00"
Sunlit
Object was in full shadow at epoch
Visualization orbit readout
Latitude
Unknown
Longitude
Unknown
Altitude
Unknown
Speed
Unknown
Apparent Right ascension
Unknown
Apparent Declination
Unknown
Sunlit
N/A
Visualization observer readout
Local Sidereal Time
06:58:39
Azimuth
Unknown
Elevation
Unknown
Doppler factor
Unknown
Orbital elements
Apogee altitude
1,308.4 km
Perigee altitude
1,253.959 km
Semi-major axis
7,659.316 km
Eccentricity
0.00355
Inclination
90.2634°
RAAN
11.2009°
Arg. of periapsis
28.8204°
True anomaly
331.29174°
Mean anomaly
331.4869°
Eccentric anomaly
331.38939°
Mean motion
3.23786 °/min
Orbital period
111.18 mins
BSTAR
-0.00033661
Loading maneuver chart data...
Computing Atmospheric mass density...
Loading historical data...
Loading historical data...
Loading historical data...
Loading historical data...
Loading historical data...
Loading historical data...
Loading historical data...

Documentation

Showing up to 5 results
|